Find Kosmos-2303

NORAD ID: 23445 Int'l Des: 1994-086 Owner: VKS Country: RU operational
LEOCIRCULARPOLAR

Current View

Loading 3D Globe...

About Kosmos-2303

Kosmos-2303 (NORAD 23445) is a satellite launched Dec 26, 1994 by VKS of RU. It operates in LEO, CIRCULAR, POLAR orbit with a mass of 225.00 kg.

Upcoming Passes

Passes for default location (London). Set your location on the main map for personalized predictions.

Altitude History

Loading altitude history...

Two-Line Element Set

1 23445U 94086E 26195.48954421 .00000010 00000-0 -54093-5 0 9993
2 23445 82.5776 328.6428 0012195 142.7695 288.5362 12.60563082451423
Epoch: Jul 14, 2026 • Age: 6 hours

Current Status

Altitude 1432.3 km
Apogee / Perigee N/A
Velocity 7.15 km/s
Sub-Earth Point -37.51°S, 52°W
Launch Date Dec 26, 1994
Age 31.5 years
Type other

Technical Details

Classification Payload
Mass 225.00 kg
Dry Mass 225.00 kg
Total Mass 225.00 kg
Length 1.60 m
Diameter 0.80 m
Span 7.00 m
Shape Cyl + Ant
Manufacturer NPOPMR
Bus Type Strela-3
Phase Status In Orbit
Owner/State VKS/RU

Most Searched